• Join FlightAware (Why Join?)
  • Login
  • US Flag 
06:28PM EDT


 

Airport Tracker/Info


-or-


 

Live Flight TrackerFlight Track Log ✈ N682RW ✈ 04-Nov-2013 ✈ CYWG - KDTW

Flight Track Log - Related Links

Times and Time Zones

All times are in EST time to prevent confusion due to time zone crossing. See the N682RW flight status page for this flight to view local times or setup timezone preferences in your user account.

Time Position Orientation Groundspeed Altitude Reporting Facility
EST Latitude Longitude Course Direction KTS MPH feet Rate Location/Type
12:12AM 49.9167 -97.2500 12° North 170 196 2,400  Level Winnipeg Center
12:13AM 49.9667 -97.2333 12° North 270 311 5,400 3,360 Climbing Winnipeg Center
12:14AM 49.9667 -97.1000 90° East 290 334 9,200 3,000 Climbing Winnipeg Center
12:15AM 49.9000 -97.0500 154° Southeast 330 380 11,400 2,520 Climbing Winnipeg Center
12:16AM 49.8000 -96.9667 152° Southeast 360 414 14,300 3,000 Climbing Winnipeg Center
12:17AM 49.7167 -96.8833 147° Southeast 380 437 17,500 3,000 Climbing Winnipeg Center
12:18AM 49.6500 -96.7667 131° Southeast 410 472 20,400 2,640 Climbing Winnipeg Center
12:19AM 49.5667 -96.6000 128° Southeast 420 483 22,800 2,100 Climbing Winnipeg Center
12:20AM 49.5000 -96.4833 131° Southeast 430 495 24,600 1,800 Climbing Winnipeg Center
12:21AM 49.4167 -96.3167 128° Southeast 450 518 26,500 1,620 Climbing Winnipeg Center
12:22AM 49.3333 -96.1667 130° Southeast 460 529 27,900 1,440 Climbing Winnipeg Center
12:23AM 49.2333 -96.0000 133° Southeast 470 541 29,400 1,560 Climbing Winnipeg Center
12:24AM 49.1667 -95.8333 121° Southeast 480 552 31,100 1,260 Climbing Winnipeg Center
12:25AM 49.0833 -95.6833 130° Southeast 480 552 32,000 1,080 Climbing Winnipeg Center
12:26AM 49.0000 -95.5333 130° Southeast 480 552 33,300 1,260 Climbing Winnipeg Center
12:27AM 48.9167 -95.3667 127° Southeast 470 541 34,600 840 Climbing Winnipeg Center
12:28AM 48.8500 -95.2167 124° Southeast 470 541 35,000 180 Climbing Winnipeg Center
12:29AM 48.7667 -95.0667 130° Southeast 470 541 35,000  Level Winnipeg Center
12:30AM 48.6667 -94.9167 135° Southeast 470 541 35,000  Level Winnipeg Center
12:31AM 48.5833 -94.7500 127° Southeast 470 541 35,000  Level Winnipeg Center
12:32AM 48.5000 -94.6000 130° Southeast 480 552 35,000  Level Winnipeg Center
12:33AM 48.4333 -94.4500 124° Southeast 480 552 35,000  Level Winnipeg Center
12:34AM 48.3167 -94.2833 136° Southeast 480 552 35,000  Level Winnipeg Center
12:35AM 48.2500 -94.1333 124° Southeast 480 552 35,000  Level Winnipeg Center
12:36AM 48.1667 -93.9833 130° Southeast 480 552 35,000  Level Winnipeg Center
12:37AM 48.0833 -93.8167 127° Southeast 480 552 35,000  Level Winnipeg Center
12:38AM 47.9833 -93.6667 135° Southeast 480 552 35,000  Level Winnipeg Center
12:39AM 47.9000 -93.5333 133° Southeast 480 552 35,000  Level Winnipeg Center
12:40AM 47.8167 -93.3667 127° Southeast 480 552 35,000  Level Winnipeg Center
12:41AM 47.7333 -93.2167 130° Southeast 480 552 35,000  Level Winnipeg Center
12:42AM 47.6500 -93.0667 129° Southeast 480 552 35,000  Level Winnipeg Center
12:43AM 47.5667 -92.9000 126° Southeast 480 552 35,000  Level Winnipeg Center
12:44AM 47.4667 -92.7667 138° Southeast 490 564 35,000  Level Winnipeg Center
12:45AM 47.3833 -92.6000 126° Southeast 480 552 35,000  Level Winnipeg Center
12:46AM 47.3000 -92.4667 133° Southeast 480 552 35,000  Level Winnipeg Center
12:47AM 47.2000 -92.3167 134° Southeast 480 552 35,000  Level Winnipeg Center
12:48AM 47.1167 -92.1500 126° Southeast 490 564 35,000  Level Winnipeg Center
12:49AM 47.0333 -92.0167 132° Southeast 490 564 35,000  Level Winnipeg Center
12:50AM 46.9333 -91.8833 138° Southeast 490 564 35,000  Level Winnipeg Center
12:51AM 46.8500 -91.7167 126° Southeast 490 564 35,000  Level Winnipeg Center
12:52AM 46.7500 -91.5833 138° Southeast 480 552 35,000  Level Winnipeg Center
12:53AM 46.6833 -91.4500 126° Southeast 480 552 35,000  Level Winnipeg Center
12:54AM 46.5667 -91.2833 135° Southeast 480 552 35,000  Level Winnipeg Center
12:55AM 46.5000 -91.1500 126° Southeast 480 552 35,000  Level Winnipeg Center
12:56AM 46.4000 -90.9833 131° Southeast 480 552 35,000  Level Winnipeg Center
12:57AM 46.3167 -90.8500 132° Southeast 470 541 35,000  Level Winnipeg Center
12:58AM 46.2167 -90.7167 137° Southeast 470 541 35,000  Level Winnipeg Center
12:59AM 46.1333 -90.5667 129° Southeast 470 541 35,000  Level Winnipeg Center
01:00AM 46.0500 -90.4500 136° Southeast 470 541 35,000  Level Winnipeg Center
01:01AM 45.9667 -90.3000 129° Southeast 480 552 35,000  Level Winnipeg Center
01:02AM 45.8628 -90.1467 134° Southeast 469 540 35,000  Level Minneapolis Center
01:03AM 45.7572 -89.9842 133° Southeast 467 537 35,000  Level Minneapolis Center
01:04AM 45.6689 -89.8478 133° Southeast 471 542 35,000  Level Minneapolis Center
01:05AM 45.5800 -89.7125 133° Southeast 470 541 35,000  Level Minneapolis Center
01:06AM 45.4911 -89.5781 133° Southeast 470 541 35,000  Level Minneapolis Center
01:07AM 45.4017 -89.4442 134° Southeast 471 542 35,000  Level Minneapolis Center
01:09AM 45.3136 -89.3106 133° Southeast 467 537 35,000  Level Minneapolis Center
01:10AM 45.2250 -89.1772 133° Southeast 467 537 35,000  Level Minneapolis Center
01:11AM 45.1353 -89.0431 133° Southeast 469 540 35,000  Level Minneapolis Center
01:12AM 45.0583 -88.8942 126° Southeast 472 543 35,000  Level Minneapolis Center
01:13AM 44.9814 -88.7244 123° Southeast 478 550 35,000  Level Minneapolis Center
01:14AM 44.9086 -88.5672 123° Southeast 479 551 35,000  Level Minneapolis Center
01:15AM 44.8350 -88.4083 123° Southeast 482 555 35,000  Level Minneapolis Center
01:16AM 44.7689 -88.2686 124° Southeast 483 556 35,000  Level Minneapolis Center
01:17AM 44.6850 -88.0931 124° Southeast 485 558 35,000  Level Minneapolis Center
01:18AM 44.6086 -87.9342 124° Southeast 490 564 35,000  Level Minneapolis Center
01:19AM 44.5408 -87.7956 124° Southeast 493 567 35,000  Level Minneapolis Center
01:20AM 44.4547 -87.6169 124° Southeast 491 565 35,000  Level Minneapolis Center
01:21AM 44.3781 -87.4578 124° Southeast 493 567 35,000  Level Minneapolis Center
01:22AM 44.3006 -87.2978 124° Southeast 495 570 35,000  Level Minneapolis Center
01:23AM 44.2339 -87.1650 125° Southeast 494 568 35,000  Level Minneapolis Center
01:24AM 44.1483 -86.9914 124° Southeast 499 574 35,000  Level Minneapolis Center
01:25AM 44.0697 -86.8308 124° Southeast 503 579 35,000  Level Minneapolis Center
01:26AM 43.9894 -86.6711 125° Southeast 503 579 35,000  Level Minneapolis Center
01:27AM 43.9097 -86.5128 125° Southeast 501 577 35,000  Level Minneapolis Center
01:28AM 43.8300 -86.3528 125° Southeast 504 580 35,000  Level Minneapolis Center
01:29AM 43.7481 -86.1939 125° Southeast 506 582 35,000 -600 Level Minneapolis Center
01:30AM 43.6678 -86.0317 124° Southeast 508 585 33,800 -1,620 Descending Minneapolis Center
01:30AM 43.6206 -85.9372 125° Southeast 506 582 32,400 -2,460 Descending Chicago Center
01:31AM 43.5361 -85.7753 126° Southeast 497 572 29,800 -2,340 Descending Chicago Center
01:32AM 43.4625 -85.6339 126° Southeast 480 552 27,800 -2,100 Descending Chicago Center
01:33AM 43.3886 -85.4914 125° Southeast 462 532 25,600 -2,280 Descending Chicago Center
01:34AM 43.3172 -85.3561 126° Southeast 443 510 23,300 -1,320 Descending Chicago Center
01:35AM 43.2492 -85.2197 124° Southeast 435 501 23,000 -180 Descending Chicago Center
01:36AM 43.2175 -85.0561 105° East 445 512 23,000  Level Chicago Center
01:37AM 43.1881 -84.8917 104° East 444 511 23,000 -480 Level Chicago Center
01:38AM 43.1406 -84.7383 113° Southeast 435 501 22,100 -1,620 Descending Chicago Center
01:39AM 43.0572 -84.6294 136° Southeast 416 479 19,800 -2,100 Descending Chicago Center
01:40AM 42.9825 -84.5153 132° Southeast 408 470 17,900 -2,040 Descending Chicago Center
01:41AM 42.9114 -84.4044 131° Southeast 396 456 15,700 -2,340 Descending Chicago Center
01:42AM 42.8447 -84.3042 132° Southeast 385 443 13,700 -2,340 Descending Cleveland Center
01:42AM 42.8222 -84.2694 131° Southeast 378 435 13,100 -1,620 Descending Cleveland Center
01:43AM 42.7781 -84.2011 131° Southeast 369 425 12,100 -1,800 Descending Cleveland Center
01:43AM 42.7550 -84.1708 136° Southeast 345 397 11,300 -1,140 Descending Cleveland Center
01:44AM 42.7139 -84.1061 131° Southeast 347 399 11,000 -300 Descending Cleveland Center
01:44AM 42.6881 -84.0694 134° Southeast 346 398 11,000  Level Cleveland Center
01:45AM 42.6503 -84.0078 130° Southeast 346 398 11,000  Level Cleveland Center
01:45AM 42.6250 -83.9717 134° Southeast 346 398 11,000  Level Cleveland Center
01:46AM 42.5878 -83.9147 132° Southeast 337 388 11,000 -240 Level Cleveland Center
01:46AM 42.5669 -83.8861 135° Southeast 291 335 10,800 -1,320 Descending Cleveland Center
01:47AM 42.5328 -83.8328 131° Southeast 301 346 9,700 -1,800 Descending Cleveland Center
01:48AM 42.5111 -83.7986 131° Southeast 301 346 9,000 -1,500 Descending Cleveland Center
01:48AM 42.4789 -83.7503 132° Southeast 295 339 8,200 -1,320 Descending Cleveland Center
01:49AM 42.4569 -83.7197 134° Southeast 286 329 7,700 -1,200 Descending Cleveland Center
01:49AM 42.4258 -83.6717 131° Southeast 288 331 7,000 -1,320 Descending Cleveland Center
01:50AM 42.4081 -83.6475 135° Southeast 255 293 6,400 -1,500 Descending Cleveland Center
01:50AM 42.3794 -83.6011 130° Southeast 262 302 5,500 -1,620 Descending Cleveland Center
01:51AM 42.3706 -83.5683 110° East 258 297 4,800 -1,740 Descending Cleveland Center
01:51AM 42.3592 -83.5058 104° East 265 305 3,800 -1,740 Descending Cleveland Center
01:52AM 42.3511 -83.4667 106° East 262 302 3,100 -840 Descending Cleveland Center
01:52AM 42.3394 -83.4153 107° East 251 289 3,000 -120 Descending Cleveland Center
01:53AM 42.3325 -83.3850 107° East 213 245 3,000  Level Cleveland Center
01:53AM 42.3244 -83.3531 109° East 226 260 3,000 -540 Level Cleveland Center
01:54AM 42.3111 -83.3114 113° Southeast 181 208 2,500 -840 Descending Cleveland Center
01:54AM 42.2958 -83.2983 148° Southeast 197 227 2,200 -600 Descending Cleveland Center
01:55AM 42.2744 -83.2978 179° South 124 143 1,900 -600 Descending Cleveland Center
01:55AM 42.2628 -83.3028 198° South 156 180 1,600 -600 Descending Cleveland Center
01:55AM 42.2503 -83.3114 207° Southwest 106 122 1,400 -540 Descending Cleveland Center
01:56AM 42.2358 -83.3197 203° Southwest 122 140 1,100 -600 Descending Cleveland Center
01:56AM 42.2214 -83.3325 213° Southwest 121 139 800 -120 Descending Cleveland Center
01:57AM 42.2089 -83.3400 204° Southwest 120 138 1,000 300 Climbing Cleveland Center